Stations météo

réclame
Mon MeteoGroup
Gioia Del Colle, Italie (16312): Température de l'air & dewpoint: 12.12.2017 23:00:00 - 18.12.2017 23:00:00 (CET)Gioia Del Colle, Italie (16312): Vitesse du vent: 12.12.2017 23:00:00 - 18.12.2017 23:00:00 (CET)Gioia Del Colle, Italie (16312): Direction du vent: 12.12.2017 23:00:00 - 18.12.2017 23:00:00 (CET)Gioia Del Colle, Italie (16312): reduced air pressure: 12.12.2017 23:00:00 - 18.12.2017 23:00:00 (CET)Gioia Del Colle, Italie (16312): visibility: 12.12.2017 23:00:00 - 18.12.2017 23:00:00 (CET)
Date & Time tt [°C] td [°C] ff [km/h] ff [knt] dd ppp [hPa] vv [km]
18.12.2017 23:00:00 - - - - - - -
18.12.2017 22:00:00 0,8 0,4 15 8 NW 1023,0 9
18.12.2017 21:00:00 1,0 1,0 18 10 NW - 3,5
18.12.2017 20:00:00 2,0 0,0 11 6 N - 10
18.12.2017 19:00:00 2,0 -1,1 18 10 WNW 1021,1 10
18.12.2017 18:00:00 3,0 0,0 18 10 WNW - 10
18.12.2017 17:00:00 3,0 0,0 22 12 WNW - 10
18.12.2017 16:00:00 2,0 2,0 16 9 N 1020,0 10
18.12.2017 15:00:00 2,0 1,0 34 18 NNW - 10
18.12.2017 14:00:00 4,0 1,0 18 10 NNW - 10
18.12.2017 13:00:00 5,8 -3,3 29 16 NNW 1019,4 10
18.12.2017 12:00:00 4,0 2,0 9 5 N - 10
18.12.2017 11:00:00 5,0 1,0 16 9 NNW - 10
18.12.2017 10:00:00 3,0 0,2 22 12 NNW 1019,6 10
18.12.2017 09:00:00 3,0 -2,0 26 14 NW - 10
18.12.2017 08:00:00 2,0 -1,0 22 12 NW - 10
18.12.2017 07:00:00 2,0 -1,4 13 7 NW 1018,2 10
18.12.2017 06:00:00 2,0 -1,0 18 10 NW - 9
18.12.2017 05:00:00 2,0 -1,0 24 13 NW - 9
18.12.2017 04:00:00 2,8 -0,3 22 12 NW 1017,7 7
18.12.2017 03:00:00 3,0 1,0 26 14 NW - 7
18.12.2017 02:00:00 3,0 0,0 28 15 WNW - 7
18.12.2017 01:00:00 2,8 0,5 18 10 NW 1017,0 7
18.12.2017 00:00:00 3,0 2,0 28 15 NW - 7
17.12.2017 23:00:00 3,0 2,0 22 12 WNW - 7
17.12.2017 22:00:00 3,2 2,3 2 1 NW 1016,6 5
17.12.2017 21:00:00 4,0 4,0 28 15 WNW - 10
17.12.2017 20:00:00 3,0 3,0 22 12 WNW - 9
17.12.2017 19:00:00 4,0 2,8 28 15 NNW 1015,2 9
17.12.2017 18:00:00 4,0 3,0 29 16 NW - 10
17.12.2017 17:00:00 5,0 2,0 26 14 NW - 10
17.12.2017 16:00:00 6,0 2,1 29 16 WNW 1012,1 10
17.12.2017 15:00:00 6,0 1,0 28 15 WNW - 10
17.12.2017 14:00:00 6,0 2,0 31 17 WNW - 10
17.12.2017 13:00:00 6,8 2,1 26 14 WNW 1012,2 10
17.12.2017 12:00:00 6,0 1,0 26 14 W - 10
17.12.2017 11:00:00 6,0 2,0 21 11 W - 10
17.12.2017 10:00:00 6,2 1,3 15 8 WNW 1011,5 10
17.12.2017 09:00:00 5,0 2,0 13 7 WNW - 10
17.12.2017 08:00:00 4,0 2,0 8 4 W - 10
17.12.2017 07:00:00 3,6 2,0 9 5 WSW 1009,9 10
17.12.2017 06:00:00 4,0 2,0 5 3 WSW - 10
17.12.2017 05:00:00 5,0 2,0 4 2 NW - 10
17.12.2017 04:00:00 5,8 1,9 5 3 NW 1009,3 10
17.12.2017 03:00:00 7,0 2,0 16 9 WSW - 10
17.12.2017 02:00:00 7,0 2,0 8 4 W - 10
17.12.2017 01:00:00 6,2 3,5 4 2 N 1009,0 10
17.12.2017 00:00:00 7,0 3,0 9 5 W - 10
16.12.2017 23:00:00 7,0 3,0 13 7 W - 10
16.12.2017 22:00:00 5,2 3,5 4 2 N 1008,8 10
16.12.2017 21:00:00 5,0 4,0 5 3 E - 10
16.12.2017 20:00:00 6,0 4,0 4 2 ENE - 10
16.12.2017 19:00:00 6,0 3,3 5 3 ESE 1007,8 10
16.12.2017 18:00:00 7,0 2,0 8 4 S - 10
16.12.2017 17:00:00 7,0 1,0 13 7 S - 10
16.12.2017 16:00:00 7,0 3,1 13 7 ESE 1007,2 10
16.12.2017 15:00:00 8,0 3,0 11 6 NW - 10
16.12.2017 14:00:00 8,0 3,0 5 3 N - 10
16.12.2017 13:00:00 9,0 2,3 5 3 SSW 1006,6 10
16.12.2017 12:00:00 9,0 7,0 11 6 W - 10
16.12.2017 11:00:00 10,0 5,0 8 4 WNW - 10
16.12.2017 10:00:00 8,6 7,4 9 5 WNW 1007,0 10
16.12.2017 09:00:00 8,0 7,0 4 2 - - 10
16.12.2017 08:00:00 8,0 6,0 5 3 E - 10
16.12.2017 07:00:00 9,0 5,8 9 5 W 1005,4 10
16.12.2017 06:00:00 10,0 7,0 8 4 WSW - 10
16.12.2017 05:00:00 10,0 8,0 8 4 N - 10
16.12.2017 04:00:00 11,0 4,7 26 14 S 1002,5 10
16.12.2017 03:00:00 11,0 5,0 34 18 S - 10
16.12.2017 02:00:00 10,0 5,0 22 12 S - 10
16.12.2017 01:00:00 10,2 1,6 24 13 S 1003,2 10
16.12.2017 00:00:00 10,0 4,0 28 15 S - 10
15.12.2017 23:00:00 10,0 1,0 37 20 S - 10
15.12.2017 22:00:00 9,6 1,0 34 18 S 1004,0 10
15.12.2017 21:00:00 9,0 3,0 37 20 S - 10
15.12.2017 20:00:00 10,0 0,0 44 24 S - 10
15.12.2017 19:00:00 9,4 0,1 28 15 S 1005,0 10
15.12.2017 18:00:00 10,0 2,0 34 18 S - 10
15.12.2017 17:00:00 11,0 5,0 28 15 S - 10
15.12.2017 16:00:00 10,8 5,4 24 13 S 1006,3 10
15.12.2017 15:00:00 10,0 7,0 31 17 S - 10
15.12.2017 14:00:00 10,0 7,0 21 11 SE - 10
15.12.2017 13:00:00 10,2 6,7 31 17 S 1008,1 10
15.12.2017 12:00:00 10,0 7,0 31 17 S - 10
15.12.2017 11:00:00 10,0 7,0 13 7 SSE - 10
15.12.2017 10:00:00 10,4 6,4 24 13 S 1010,1 10
15.12.2017 09:00:00 10,0 8,0 28 15 SSE - 8
15.12.2017 08:00:00 10,0 9,0 22 12 SSE - 10
15.12.2017 07:00:00 9,8 9,2 16 9 SSE 1010,8 10
15.12.2017 06:00:00 10,0 10,0 16 9 SSE - 10
15.12.2017 05:00:00 9,0 9,0 24 13 SSE - 10
15.12.2017 04:00:00 9,4 9,0 22 12 SSE 1012,1 10
15.12.2017 03:00:00 9,0 9,0 24 13 SSE - 8
15.12.2017 02:00:00 9,0 9,0 31 17 SSE - 8
15.12.2017 01:00:00 9,2 9,1 28 15 SSE 1013,0 10
15.12.2017 00:00:00 9,0 8,0 24 13 SSE - 10
14.12.2017 23:00:00 8,0 6,0 18 10 S - 10
14.12.2017 22:00:00 8,2 6,0 15 8 SSE 1014,5 10
14.12.2017 21:00:00 8,0 4,0 18 10 S - 10
14.12.2017 20:00:00 8,0 5,0 21 11 S - 10
14.12.2017 19:00:00 8,0 5,8 22 12 S 1015,0 10
14.12.2017 18:00:00 8,0 5,0 16 9 SE - 10
14.12.2017 17:00:00 8,0 5,0 16 9 S - 10
14.12.2017 16:00:00 9,8 4,6 15 8 S 1014,8 10
14.12.2017 15:00:00 10,0 4,0 13 7 S - 10
14.12.2017 14:00:00 10,0 4,0 16 9 S - 10
14.12.2017 13:00:00 10,2 3,3 24 13 S 1015,3 10
14.12.2017 12:00:00 10,0 4,0 21 11 S - 10
14.12.2017 11:00:00 9,0 2,0 16 9 S - 10
14.12.2017 10:00:00 8,0 1,2 21 11 S 1016,8 10
14.12.2017 09:00:00 6,0 1,0 18 10 S - 10
14.12.2017 08:00:00 4,0 1,0 16 9 S - 10
14.12.2017 07:00:00 3,4 0,3 18 10 S 1017,6 10
14.12.2017 06:00:00 4,0 0,0 13 7 S - 10
14.12.2017 05:00:00 5,0 0,0 15 8 S - 10
14.12.2017 04:00:00 4,0 0,0 13 7 SSE 1018,1 10
14.12.2017 03:00:00 6,0 0,0 18 10 SW - 10
14.12.2017 02:00:00 6,0 0,0 15 8 SW - 10
14.12.2017 01:00:00 7,2 0,4 16 9 WSW 1017,7 10
14.12.2017 00:00:00 7,0 3,0 16 9 WSW - 10
13.12.2017 23:00:00 7,0 5,0 11 6 WSW - 10
13.12.2017 22:00:00 7,4 5,5 15 8 WSW 1018,3 10
13.12.2017 21:00:00 8,0 6,0 15 8 W - 10
13.12.2017 20:00:00 9,0 8,0 9 5 SSW - 10
13.12.2017 19:00:00 9,0 9,0 4 2 W 1018,6 8
13.12.2017 18:00:00 9,0 9,0 4 2 N - 5
13.12.2017 17:00:00 10,0 9,0 4 2 ENE - 5
13.12.2017 16:00:00 11,0 9,4 4 2 E 1017,7 7
13.12.2017 15:00:00 11,0 9,0 5 3 WSW - 10
13.12.2017 14:00:00 11,0 7,0 11 6 S - 10
13.12.2017 13:00:00 11,2 6,7 15 8 SSE 1018,6 10
13.12.2017 12:00:00 11,0 7,0 13 7 SSE - 10
13.12.2017 11:00:00 8,0 8,0 8 4 S - 10
13.12.2017 10:00:00 8,2 7,7 0 0 N 1020,1 10
13.12.2017 09:00:00 8,0 8,0 8 4 SSW - 10
13.12.2017 08:00:00 9,0 8,0 8 4 SSW - 10
13.12.2017 07:00:00 9,0 7,9 15 8 S 1019,0 10
13.12.2017 06:00:00 9,0 8,0 16 9 S - 9
13.12.2017 05:00:00 9,0 8,0 16 9 S - 8
13.12.2017 04:00:00 9,4 7,2 16 9 SSE 1018,2 8
13.12.2017 03:00:00 8,0 7,0 21 11 S - 9
13.12.2017 02:00:00 9,0 7,0 13 7 S - 9
13.12.2017 01:00:00 9,2 5,8 13 7 SSE 1019,3 8
13.12.2017 00:00:00 8,0 6,0 18 10 S - 8
12.12.2017 23:00:00 9,0 5,0 13 7 SSE - 9

tt = Température de l'air
td = dewpoint
ff = Vitesse du vent
dd = Direction du vent
ppp = reduced air pressure
vv = visibility

stations d'obs. à proximité